Back to catalog

STARLINK-37084

AliveCommunicationsVLEO
NORAD 68254·PAYLOAD·🇺🇸 United States

Launched Mar 17, 2026 from Vandenberg Space Force Base

Loading…

Next Passes (next 24 hours)

TLE

FreshSource: CelesTrak SupGP

Epoch: Sep 14, 2026, 15:09 UTC

1 68254C 26054Y   26257.63173611  .00034440  00000+0  10173-2 0  2577
2 68254  53.1563 129.4774 0001270 106.2835  25.3867 15.34380803    16

Track STARLINK-37084 in real time with AllMySat

Download on the App Store